Location: *
(46.1200°N, 11.2700°E)
Time: 20:51:42
(UTC+00:00)

Ariane Rocket - Pass Details

Date: 02 March 2021
Orbit: 759 x 771 km, 98.7° (Epoch: 17 April)

Event Time Altitude Azimuth Distance (km) Brightness Sun altitude
Exits shadow 19:19:28 44° 171° (S) 1,062 3.5 -24.3°
Maximum altitude 19:21:09 84° 255° (WSW) 781 2.9 -24.5°
Drops below altitude 10° 19:26:18 10° 345° (NNW) 2,323 5.9 -25.4°
Sets 19:28:37 0° 346° (NNW) 3,253 6.7 -25.8°
